�N����,����,�~����,�C��,���x,�C��,����,���ϕ���,�ő�u�ԕ���,�ő厞����,���˗�,�I�_���x,�n�����x,�ő啗���N��,DTYPE
"18/08/30","00:10",0.0,24.8,84.5,1006.2,280.5,0.7,1.1,289.1,0.00,22.0,27.4,"00:02:32",1
"18/08/30","00:20",0.0,24.7,85.3,1006.2,270.7,0.7,1.2,260.6,0.00,22.1,27.5,"00:12:08",1
"18/08/30","00:30",0.0,24.8,85.1,1006.2,270.4,0.8,1.6,278.3,0.00,22.2,27.4,"00:24:08",1
"18/08/30","00:40",0.0,24.6,85.3,1006.4,273.2,0.7,1.4,334.7,0.00,22.0,27.4,"00:39:12",1
"18/08/30","00:50",0.0,24.6,85.6,1006.7,303.5,0.8,1.9,347.9,0.00,22.1,27.3,"00:40:56",1
"18/08/30","01:00",0.0,24.5,85.7,1006.4,318.5,0.7,1.3,349.5,0.00,22.0,27.3,"00:53:12",1
"18/08/30","01:10",0.0,24.4,86.2,1006.4,309.6,0.8,1.3,324.0,0.00,22.0,27.2,"01:01:12",1
"18/08/30","01:20",0.0,24.5,85.6,1006.4,306.1,0.8,1.7,301.6,0.00,22.0,27.2,"01:13:52",1
"18/08/30","01:30",0.0,24.3,86.0,1006.7,315.0,0.8,1.6,317.0,0.00,21.8,27.1,"01:27:52",1
"18/08/30","01:40",0.0,24.0,86.6,1006.4,329.2,1.1,1.9,341.7,0.00,21.7,26.9,"01:34:24",1
"18/08/30","01:50",0.0,23.8,87.4,1006.7,309.4,0.6,1.4,328.7,0.00,21.6,26.9,"01:44:16",1
"18/08/30","02:00",0.0,23.5,87.9,1006.7,295.0,0.6,0.9,333.7,0.00,21.4,27.0,"01:51:12",1
"18/08/30","02:10",0.0,23.4,89.1,1006.9,300.9,0.5,1.0,338.3,0.00,21.5,26.8,"02:07:04",1
"18/08/30","02:20",0.0,23.4,88.6,1006.9,300.5,0.5,1.4,302.5,0.00,21.4,26.8,"02:11:28",1
"18/08/30","02:30",0.0,23.5,88.7,1006.9,282.5,0.8,1.6,311.1,0.00,21.6,26.6,"02:26:24",1
"18/08/30","02:40",0.0,23.6,89.0,1007.1,330.9,0.8,1.7,311.1,0.00,21.7,26.6,"02:39:12",1
"18/08/30","02:50",0.0,23.6,87.6,1007.4,330.7,1.0,2.0,339.6,0.00,21.5,26.5,"02:49:52",1
"18/08/30","03:00",0.0,23.4,88.1,1007.4,316.2,1.0,2.1,333.6,0.00,21.4,26.5,"02:54:56",1
"18/08/30","03:10",0.0,23.3,88.6,1007.4,309.0,1.0,1.6,333.8,0.00,21.4,26.7,"03:03:36",1
"18/08/30","03:20",0.0,23.2,88.5,1007.1,299.8,0.7,1.2,322.7,0.00,21.2,26.4,"03:19:04",1
"18/08/30","03:30",0.0,23.1,89.2,1007.8,309.3,1.1,1.9,323.9,0.00,21.3,26.5,"03:29:12",1
"18/08/30","03:40",0.0,23.2,88.8,1007.4,291.3,1.0,1.9,337.6,0.00,21.3,26.2,"03:30:56",1
"18/08/30","03:50",0.0,23.2,87.9,1007.6,282.7,0.7,1.0,274.7,0.00,21.1,26.4,"03:44:16",1
"18/08/30","04:00",0.0,23.0,88.5,1007.4,311.6,1.0,1.4,324.5,0.00,21.0,26.2,"03:58:00",1
"18/08/30","04:10",0.0,23.0,88.6,1007.1,295.8,0.8,1.4,309.0,0.00,21.1,26.0,"04:06:40",1
"18/08/30","04:20",0.0,22.9,88.8,1007.6,316.8,1.0,1.8,327.1,0.00,21.0,26.1,"04:10:02",1
"18/08/30","04:30",0.0,22.9,88.9,1007.1,317.5,1.3,2.8,344.7,0.00,21.0,26.1,"04:28:32",1
"18/08/30","04:40",0.0,22.9,88.9,1007.4,279.6,1.0,1.6,268.8,0.00,21.0,26.1,"04:32:24",1
"18/08/30","04:50",0.0,22.9,89.1,1007.4,292.2,1.1,1.9,345.9,0.00,21.0,26.0,"04:42:32",1
"18/08/30","05:00",0.0,23.0,89.0,1007.4,300.5,1.2,2.1,331.4,0.00,21.1,26.0,"04:53:04",1
"18/08/30","05:10",0.0,23.0,88.8,1007.6,280.6,1.0,1.8,264.2,0.00,21.1,26.0,"05:08:40",1
"18/08/30","05:20",0.0,23.0,88.9,1007.6,281.7,0.8,1.1,303.6,0.00,21.1,25.8,"05:10:08",1
"18/08/30","05:30",0.0,23.1,88.9,1007.8,279.2,0.8,1.1,299.1,0.00,21.2,25.9,"05:21:04",1
"18/08/30","05:40",0.0,23.3,89.0,1007.8,294.4,0.8,1.3,316.0,0.00,21.4,26.1,"05:38:56",1
"18/08/30","05:50",0.0,23.4,88.8,1007.8,279.3,0.7,1.2,282.8,0.00,21.5,26.0,"05:43:44",1
"18/08/30","06:00",0.0,23.6,88.4,1008.1,307.7,1.0,1.6,347.8,0.00,21.6,26.0,"05:57:12",1
"18/08/30","06:10",0.0,23.9,88.1,1008.1,283.1,0.6,1.4,335.2,0.00,21.8,26.0,"06:09:28",1
"18/08/30","06:20",0.0,24.1,87.5,1007.8,287.2,0.3,1.3,315.4,0.00,21.9,25.9,"06:11:28",1
"18/08/30","06:30",0.0,24.1,87.0,1008.3,286.2,0.7,1.3,267.8,0.00,21.8,26.1,"06:29:36",1
"18/08/30","06:40",0.0,24.1,87.0,1008.1,314.3,0.8,1.8,330.4,0.01,21.8,25.9,"06:32:00",1
"18/08/30","06:50",0.0,24.3,86.7,1007.8,296.5,0.8,1.8,346.4,0.03,22.0,26.1,"06:42:00",1
"18/08/30","07:00",0.0,25.0,85.6,1007.8,279.8,0.6,1.4,328.3,0.04,22.5,26.0,"06:54:56",1
"18/08/30","07:10",0.0,25.4,82.7,1007.4,218.9,0.2,0.8,246.3,0.05,22.3,26.1,"07:09:36",1
"18/08/30","07:20",0.0,26.1,80.0,1007.4,272.2,0.3,1.0,345.4,0.08,22.4,26.3,"07:14:40",1
"18/08/30","07:30",0.0,26.6,78.2,1007.4,201.7,0.6,1.3,220.8,0.11,22.5,26.3,"07:20:48",1
"18/08/30","07:40",0.0,26.9,77.0,1007.1,196.8,0.7,1.9,204.5,0.15,22.6,26.2,"07:35:04",1
"18/08/30","07:50",0.0,27.2,76.3,1007.1,173.2,0.3,1.2,222.6,0.10,22.7,26.5,"07:41:04",1
"18/08/30","08:00",0.0,26.9,76.2,1006.9,177.5,1.0,2.5,198.3,0.03,22.4,26.6,"07:53:28",1
"18/08/30","08:10",0.0,26.8,78.1,1007.1,165.5,0.7,1.8,227.3,0.06,22.7,26.7,"08:05:44",1
"18/08/30","08:20",0.0,27.0,77.4,1007.1,253.4,0.8,1.8,324.1,0.07,22.7,26.8,"08:15:44",1
"18/08/30","08:30",0.0,27.1,78.1,1006.9,258.1,0.5,1.3,311.1,0.10,23.0,26.7,"08:29:28",1
"18/08/30","08:40",0.0,27.3,78.0,1006.9,231.0,0.5,1.1,214.7,0.11,23.2,26.7,"08:35:20",1
"18/08/30","08:50",0.0,27.5,76.2,1006.7,13.1,0.6,1.6,22.2,0.11,23.0,26.9,"08:48:16",1
"18/08/30","09:00",0.0,27.5,75.8,1006.4,13.5,1.1,2.0,7.2,0.11,22.9,27.0,"08:59:28",1
"18/08/30","09:10",0.0,28.2,75.0,1006.4,357.9,1.0,1.8,354.8,0.21,23.4,26.9,"09:04:48",1
"18/08/30","09:20",0.0,28.6,73.4,1007.1,23.3,0.7,1.7,19.6,0.23,23.4,27.4,"09:19:36",1
"18/08/30","09:30",0.0,28.2,74.1,1007.6,352.3,1.1,2.1,355.5,0.19,23.2,27.3,"09:29:20",1
"18/08/30","09:40",0.0,28.8,72.6,1007.4,333.6,0.7,1.7,359.1,0.24,23.4,27.4,"09:30:08",1
"18/08/30","09:50",0.0,29.2,70.8,1007.8,27.5,1.0,2.0,352.5,0.29,23.4,27.7,"09:41:20",1
"18/08/30","10:00",0.0,29.4,70.0,1007.8,38.5,0.8,2.2,16.6,0.40,23.4,27.9,"09:56:24",1
"18/08/30","10:10",0.0,30.3,67.8,1008.3,43.2,0.8,2.0,11.2,0.46,23.7,28.2,"10:05:36",1
"18/08/30","10:20",0.0,30.2,69.5,1008.8,145.6,0.8,1.8,192.4,0.47,24.0,28.3,"10:19:52",1
"18/08/30","10:30",0.0,30.6,66.7,1009.0,181.9,1.3,2.8,184.7,0.46,23.7,28.6,"10:24:16",1
"18/08/30","10:40",0.0,30.4,67.2,1008.8,170.6,1.7,4.4,209.1,0.43,23.7,28.9,"10:36:32",1
"18/08/30","10:50",0.0,31.2,67.2,1008.8,162.0,1.5,3.1,227.9,0.50,24.4,29.1,"10:40:32",1
"18/08/30","11:00",0.0,31.7,64.4,1008.8,135.2,1.2,2.9,158.9,0.54,24.2,29.2,"10:58:08",1
"18/08/30","11:10",0.0,31.4,64.0,1008.8,95.0,1.2,3.2,134.5,0.39,23.8,29.7,"11:00:48",1
"18/08/30","11:20",0.0,31.2,63.1,1008.3,166.1,1.3,4.8,126.6,0.33,23.4,30.0,"11:15:44",1
"18/08/30","11:30",0.0,31.7,61.6,1008.1,154.7,1.6,3.4,125.7,0.34,23.5,29.9,"11:24:00",1
"18/08/30","11:40",0.0,31.9,61.9,1007.8,179.4,1.8,3.7,222.9,0.28,23.7,30.2,"11:38:08",1
"18/08/30","11:50",0.0,32.2,59.5,1007.8,180.4,0.8,2.0,175.2,0.38,23.4,30.2,"11:42:16",1
"18/08/30","12:00",0.0,31.8,61.3,1007.8,205.4,1.2,4.0,204.1,0.35,23.5,30.0,"11:51:36",1
"18/08/30","12:10",0.0,32.7,56.9,1008.1,191.4,1.2,3.3,168.1,0.48,23.1,30.5,"12:06:24",1
"18/08/30","12:20",0.0,32.6,58.9,1008.1,216.5,1.5,3.4,222.6,0.51,23.6,30.7,"12:17:44",1
"18/08/30","12:30",0.0,32.6,58.6,1008.1,321.6,1.1,3.3,357.5,0.40,23.5,30.7,"12:23:36",1
"18/08/30","12:40",0.0,32.9,58.4,1007.8,335.2,1.5,4.5,347.3,0.43,23.7,31.0,"12:31:04",1
"18/08/30","12:50",0.0,32.8,56.5,1007.6,199.0,1.3,3.1,211.0,0.50,23.1,31.2,"12:48:00",1
"18/08/30","13:00",0.0,33.5,56.5,1007.8,217.1,2.0,4.5,218.5,0.56,23.7,31.4,"12:54:16",1
"18/08/30","13:10",0.0,32.7,56.9,1007.6,247.8,1.1,2.5,221.0,0.36,23.1,31.5,"13:01:36",1
"18/08/30","13:20",0.0,32.7,60.4,1007.1,286.5,0.7,2.6,228.3,0.25,24.1,31.5,"13:10:08",1
"18/08/30","13:30",0.0,32.6,57.5,1006.9,241.2,1.2,3.2,226.2,0.28,23.2,31.7,"13:21:44",1
"18/08/30","13:40",0.0,33.3,59.4,1006.7,150.9,1.2,2.9,199.6,0.28,24.4,31.7,"13:38:16",1
"18/08/30","13:50",0.0,33.0,56.1,1006.7,142.6,0.8,1.9,134.6,0.32,23.1,31.7,"13:40:24",1
"18/08/30","14:00",0.0,32.9,56.9,1006.7,222.4,1.2,3.5,223.7,0.26,23.3,31.8,"13:50:32",1
"18/08/30","14:10",0.0,33.5,54.1,1006.4,222.9,1.3,3.1,215.4,0.45,23.0,31.6,"14:08:56",1
"18/08/30","14:20",0.0,33.9,52.7,1006.7,239.4,1.6,4.4,202.9,0.52,22.9,31.9,"14:17:12",1
"18/08/30","14:30",0.0,34.0,52.2,1007.1,231.1,1.7,5.6,222.1,0.51,22.9,32.2,"14:26:32",1
"18/08/30","14:40",0.0,33.7,53.3,1006.4,206.9,2.8,6.6,211.1,0.41,22.9,32.1,"14:34:32",1
"18/08/30","14:50",0.0,33.8,53.9,1006.2,216.6,2.0,4.7,214.3,0.47,23.2,32.2,"14:42:40",1
"18/08/30","15:00",0.0,33.3,53.4,1006.2,231.6,1.5,3.5,215.0,0.36,22.6,32.3,"14:52:32",1
"18/08/30","15:10",0.0,33.6,52.2,1006.0,317.5,1.0,2.5,344.6,0.34,22.5,32.3,"15:03:36",1
"18/08/30","15:20",0.0,33.4,50.1,1006.0,258.0,1.2,3.5,212.1,0.42,21.6,32.4,"15:16:40",1
"18/08/30","15:30",0.0,33.7,51.0,1005.7,239.0,1.6,3.7,229.0,0.36,22.2,32.5,"15:23:36",1
"18/08/30","15:40",0.0,32.6,53.3,1006.0,244.6,1.2,3.9,221.0,0.15,21.9,32.4,"15:31:44",1
"18/08/30","15:50",0.0,32.4,53.0,1005.5,243.9,1.5,3.3,255.7,0.12,21.6,32.2,"15:46:08",1
"18/08/30","16:00",0.0,32.3,55.0,1005.2,244.2,1.3,3.2,224.2,0.12,22.1,32.1,"15:57:52",1
"18/08/30","16:10",0.0,32.0,55.5,1005.2,238.1,1.3,4.0,223.3,0.10,22.0,32.1,"16:09:52",1
"18/08/30","16:20",0.0,32.1,55.5,1005.0,223.1,1.6,3.6,219.2,0.11,22.1,31.9,"16:10:24",1
"18/08/30","16:30",0.0,32.4,55.4,1004.8,223.1,1.7,3.9,201.5,0.17,22.4,31.8,"16:22:40",1
"18/08/30","16:40",0.0,32.1,56.0,1004.8,186.3,1.7,4.2,202.2,0.17,22.3,31.6,"16:32:48",1
"18/08/30","16:50",0.0,32.4,55.3,1004.5,191.1,1.1,3.5,216.3,0.18,22.3,31.7,"16:43:44",1
"18/08/30","17:00",0.0,32.5,55.4,1004.8,210.1,1.2,3.5,225.8,0.12,22.5,31.6,"16:59:28",1
"18/08/30","17:10",0.0,32.1,55.1,1004.5,217.1,1.7,3.9,223.7,0.08,22.0,31.4,"17:06:16",1
"18/08/30","17:20",0.0,31.8,57.0,1004.3,217.0,1.6,3.4,232.6,0.06,22.3,31.2,"17:17:20",1
"18/08/30","17:30",0.0,31.4,57.7,1004.8,274.4,1.2,3.1,336.9,0.04,22.1,31.3,"17:27:36",1
"18/08/30","17:40",0.0,31.1,59.7,1004.3,229.8,2.0,3.9,229.3,0.03,22.4,31.1,"17:33:04",1
"18/08/30","17:50",0.0,31.0,60.2,1004.1,228.9,1.1,2.8,212.9,0.03,22.4,31.0,"17:41:04",1
"18/08/30","18:00",0.0,30.9,61.7,1004.1,233.9,1.3,2.9,227.3,0.02,22.7,30.9,"17:50:16",1
"18/08/30","18:10",0.0,30.6,62.5,1004.1,238.1,1.3,3.7,218.0,0.01,22.7,30.7,"18:02:08",1
"18/08/30","18:20",0.0,30.3,63.2,1003.8,231.5,1.5,3.4,224.3,0.00,22.6,30.7,"18:13:20",1
"18/08/30","18:30",0.0,30.0,63.6,1003.6,237.1,1.5,3.7,222.7,0.00,22.4,30.6,"18:29:52",1
"18/08/30","18:40",0.0,29.7,63.5,1003.6,257.1,1.3,2.8,232.6,0.00,22.1,30.3,"18:33:12",1
"18/08/30","18:50",0.0,29.5,64.2,1003.1,264.8,1.3,3.9,247.7,0.00,22.1,30.2,"18:40:02",1
"18/08/30","19:00",0.0,29.3,64.7,1003.6,268.0,1.1,3.6,243.8,0.00,22.0,30.0,"18:50:40",1
"18/08/30","19:10",0.0,29.0,65.8,1003.4,284.2,0.8,2.0,294.8,0.00,22.0,30.0,"19:09:48",1
"18/08/30","19:20",0.0,28.8,67.1,1004.1,298.1,1.1,2.6,347.8,0.00,22.1,29.7,"19:13:20",1
"18/08/30","19:30",0.0,28.8,68.0,1004.5,282.2,1.2,2.9,254.4,0.00,22.3,29.8,"19:20:24",1
"18/08/30","19:40",0.0,28.7,68.6,1004.5,268.9,1.1,2.8,231.3,0.00,22.4,29.5,"19:36:56",1
"18/08/30","19:50",0.0,28.7,68.8,1004.3,300.2,1.2,4.2,212.0,0.00,22.4,29.5,"19:40:48",1
"18/08/30","20:00",0.0,28.5,70.3,1004.5,282.8,0.8,2.6,315.4,0.00,22.6,29.5,"19:58:48",1
"18/08/30","20:10",0.0,28.3,71.3,1004.5,306.8,1.0,3.5,337.6,0.00,22.6,29.1,"20:02:56",1
"18/08/30","20:20",0.0,28.3,71.7,1005.0,313.4,1.1,2.0,248.5,0.00,22.7,29.0,"20:16:40",1
"18/08/30","20:30",0.0,28.1,72.0,1005.0,311.1,0.7,1.9,158.7,0.00,22.6,29.0,"20:23:20",1
"18/08/30","20:40",0.0,28.0,72.7,1005.0,319.5,1.2,3.3,352.6,0.00,22.7,29.2,"20:32:16",1
"18/08/30","20:50",0.0,27.8,74.3,1005.7,228.9,1.1,2.7,344.3,0.00,22.8,28.8,"20:40:48",1
"18/08/30","21:00",0.0,28.0,74.3,1005.5,253.2,1.5,5.2,232.9,0.00,23.0,28.8,"20:55:44",1
"18/08/30","21:10",0.0,27.9,74.3,1005.5,295.4,1.2,2.8,353.3,0.00,22.9,28.9,"21:01:52",1
"18/08/30","21:20",0.0,27.8,74.8,1005.2,274.8,0.8,2.0,319.3,0.00,23.0,28.6,"21:16:40",1
"18/08/30","21:30",0.0,27.7,75.1,1005.5,310.6,1.1,2.8,343.8,0.00,22.9,28.6,"21:29:12",1
"18/08/30","21:40",0.0,27.5,76.0,1005.2,296.2,0.8,2.6,315.8,0.00,22.9,28.5,"21:39:36",1
"18/08/30","21:50",0.0,27.5,76.3,1005.7,286.7,1.0,2.8,316.1,0.00,23.0,28.5,"21:46:00",1
"18/08/30","22:00",0.0,27.5,76.4,1006.0,293.3,1.0,2.4,339.1,0.00,23.0,28.4,"21:56:56",1
"18/08/30","22:10",0.0,27.5,76.7,1005.7,289.5,1.0,2.4,308.4,0.00,23.1,28.4,"22:09:20",1
"18/08/30","22:20",0.0,27.5,76.3,1006.2,288.8,1.0,2.5,234.1,0.00,23.0,28.3,"22:17:12",1
"18/08/30","22:30",0.0,27.4,76.9,1006.0,282.4,0.7,1.7,319.6,0.00,23.0,28.2,"22:22:08",1
"18/08/30","22:40",0.0,27.3,77.1,1006.0,276.7,0.7,1.6,308.7,0.00,23.0,28.3,"22:31:52",1
"18/08/30","22:50",0.0,27.3,77.5,1005.7,318.2,0.8,1.8,342.1,0.00,23.1,28.3,"22:49:20",1
"18/08/30","23:00",0.0,27.2,77.6,1006.0,310.7,0.7,1.2,356.6,0.00,23.0,28.1,"22:58:16",1
"18/08/30","23:10",0.0,26.9,78.7,1005.7,333.0,0.8,1.2,313.7,0.00,22.9,28.1,"23:03:12",1
"18/08/30","23:20",0.0,26.6,80.3,1005.5,308.9,0.8,1.8,339.2,0.00,23.0,28.2,"23:12:00",1
"18/08/30","23:30",0.0,26.6,81.3,1006.0,300.9,0.8,1.6,317.2,0.00,23.2,27.9,"23:20:16",1
"18/08/30","23:40",0.0,26.9,80.4,1006.0,255.2,1.0,2.4,226.0,0.00,23.3,28.0,"23:33:52",1
"18/08/30","23:50",0.0,27.1,79.2,1005.7,260.4,1.2,2.9,231.9,0.00,23.2,27.7,"23:47:28",1
"18/08/30","24:00",0.0,27.2,79.0,1005.7,273.0,0.8,2.1,336.8,0.00,23.3,27.8,"23:58:48",1
